[[{"header":{"parameterUnit":"m.s-1","parameterCategory":1,"la1":30.2991,"la2":30.254,"lo1":-89.0895,"lo2":-89.0444,"dy":0.0017,"dx":0.0017,"nx":28,"ny":28,"refTime":"2024-05-02T03:00:00:Z","depth":0,"parameterNumber":2,"parameterNumberName":"U-component_of_WINDS"},"data":[0,0,0,0,0,0,0,0,0,0,0,0,0,0,0,0,0,0,0,0,0,0,0,0,0,0,0,0,0,0,0,0,0,0,0,0,0,0,0,0,0,0,0,0,0,0,0,0,0,0,0,0,0,0,0,0,0,0,-2.6311,-2.631,0,-2.6257,-2.6256,-2.6255,-2.6173,-2.6172,-2.617,-2.6169,-2.6112,-2.6112,-2.6112,0,0,0,0,0,0,0,0,0,0,0,0,0,-2.6343,-2.6343,-2.6311,-2.631,-2.631,-2.6257,-2.6256,-2.6255,-2.6173,-2.6172,-2.617,-2.6168,-2.6112,-2.6112,-2.6112,0,0,0,0,0,0,0,0,0,0,0,0,0,-2.6313,-2.6343,-2.6311,-2.6262,-2.6258,-2.6257,-2.6256,-2.6255,-2.6174,-2.6172,-2.6169,-2.6167,-2.6112,-2.6112,-2.6112,-2.6154,0,0,-2.6111,-2.6111,0,0,0,0,0,0,0,0,-2.6315,-2.6312,-2.627,-2.6266,-2.626,-2.6219,-2.6247,-2.6221,-2.6174,-2.6206,-2.6169,-2.6166,-2.615,-2.6146,-2.6141,-2.6151,-2.6149,-2.6111,-2.6111,-2.6111,-2.6111,0,0,0,0,0,0,0,-2.6317,-2.6314,-2.6289,-2.627,-2.6264,-2.6243,-2.6237,-2.6241,-2.619,-2.6203,-2.6197,-2.6191,-2.6146,-2.6141,-2.6139,-2.6148,-2.6111,-2.6111,-2.6111,-2.6111,-2.6191,-2.6193,0,0,0,0,0,0,-2.6327,-2.6316,-2.6291,-2.6288,-2.6283,-2.6244,-2.6237,-2.6235,-2.619,-2.6181,-2.6193,-2.6188,-2.6143,-2.6139,-2.6136,-2.6182,-2.6111,-2.6111,-2.611,-2.6189,-2.6191,-2.6194,0,0,0,0,0,0,-2.6328,-2.6325,-2.6293,-2.63,-2.6295,-2.6246,-2.6244,-2.6235,-2.6229,-2.6183,-2.6173,-2.6197,-2.6141,-2.6137,-2.615,-2.6179,-2.611,-2.611,-2.6186,-2.6189,-2.6192,-2.6275,0,0,0,0,0,0,-2.6329,-2.6326,-2.6342,-2.6301,-2.6295,-2.6309,-2.6246,-2.6235,-2.6229,-2.6222,-2.6184,-2.6176,-2.6139,-2.6151,-2.615,-2.6178,-2.611,-2.6183,-2.6187,-2.6191,-2.627,-2.6281,-2.6291,0,0,0,0,0,-2.633,-2.6367,-2.6343,-2.634,-2.6313,-2.631,-2.6306,-2.6263,-2.6232,-2.6247,-2.6218,-2.6177,-2.6177,-2.6153,-2.6151,-2.6179,-2.6181,-2.6186,-2.6191,-2.6265,-2.6279,-2.6291,0,0,0,0,0,0,-2.6411,-2.6361,-2.6333,-2.6358,-2.6339,-2.6296,-2.6314,-2.6279,-2.6269,-2.6262,-2.6208,-2.6201,-2.6221,-2.6202,-2.6176,-2.6218,-2.6173,-2.6178,-2.6229,-2.6242,-2.6253,-2.6256,-2.611,0,0,0,0,0,-2.6432,-2.6434,-2.639,-2.6416,-2.6408,-2.6363,-2.636,-2.6329,-2.6307,-2.6298,-2.6269,-2.625,-2.6245,-2.6243,-2.6236,-2.6267,-2.6257,-2.6286,-2.6296,-2.6305,-2.6309,-2.6324,-2.6336,-2.621,-2.621,-2.621,0,0,-2.6474,-2.6447,-2.6451,-2.6431,-2.6413,-2.6416,-2.6357,-2.6362,-2.6364,-2.6299,-2.6309,-2.6288,-2.6263,-2.6285,-2.6294,-2.627,-2.6342,-2.6312,-2.6319,-2.6318,-2.6331,-2.6343,-2.6353,-2.6214,-2.6213,-2.6213,0,0,-2.6553,-2.6533,-2.6552,-2.6535,-2.6509,-2.6479,-2.6484,-2.6447,-2.643,-2.6441,-2.6392,-2.6393,-2.6387,-2.637,-2.6361,-2.6436,-2.6398,-2.6435,-2.6489,-2.6505,-2.6514,-2.6523,-2.6549,-2.6559,-2.644,-2.644,-2.644,0,-2.6609,-2.6612,-2.6566,-2.6575,-2.6568,-2.651,-2.6529,-2.6515,-2.6488,-2.6483,-2.6457,-2.6448,-2.6427,-2.6445,-2.6463,-2.6458,-2.6461,-2.6438,-2.6517,-2.6525,-2.6532,-2.6556,-2.6566,-2.6445,-2.6444,-2.6444,-2.6443,0,-2.6681,-2.6684,-2.6703,-2.6678,-2.6673,-2.6687,-2.6644,-2.6644,-2.6614,-2.6587,-2.6599,-2.6572,-2.6558,-2.656,-2.6531,-2.6574,-2.656,-2.6527,-2.648,-2.6549,-2.6571,-2.658,-2.6451,-2.645,-2.6448,-2.6447,0,0,-2.6807,-2.6759,-2.6766,-2.6754,-2.6721,-2.6723,-2.6735,-2.6722,-2.6723,-2.6707,-2.6715,-2.6711,-2.668,-2.667,-2.6638,-2.6651,-2.6711,-2.6616,-2.6614,-2.6633,-2.6757,-2.6782,-2.6793,-2.6687,-2.6689,-2.669,-2.6759,0,-2.6878,-2.6895,-2.6855,-2.6882,-2.6884,-2.683,-2.684,-2.6822,-2.6797,-2.6795,-2.6768,-2.6766,-2.6726,-2.6719,-2.673,-2.6702,-2.6735,-2.6697,-2.6693,-2.6693,-2.6699,-2.6804,-2.683,-2.6896,-2.6767,-2.6768,-2.6769,0,-2.6963,-2.6951,-2.6978,-2.6944,-2.6944,-2.6953,-2.6939,-2.6938,-2.6916,-2.6897,-2.6887,-2.685,-2.6859,-2.6816,-2.6827,-2.6802,-2.6798,-2.6784,-2.6786,-2.6782,-2.6734,-2.6802,-2.6916,-2.6926,-2.6782,-2.6781,-2.678,0,-2.705,-2.7042,-2.7057,-2.7049,-2.701,-2.7018,-2.7002,-2.6978,-2.6973,-2.6961,-2.6957,-2.6946,-2.694,-2.6932,-2.6893,-2.6865,-2.6909,-2.6862,-2.6893,-2.6894,-2.6903,-2.6903,-2.7017,-2.6904,-2.6904,-2.6904,-2.6903,0,-2.7133,-2.7151,-2.7096,-2.7105,-2.7124,-2.7079,-2.7099,-2.7078,-2.7057,-2.706,-2.7014,-2.7019,-2.6968,-2.6967,-2.6937,-2.6951,-2.6948,-2.6933,-2.6925,-2.6936,-2.6938,-2.6932,-2.6926,-2.6906,-2.6906,-2.6905,-2.6905,0,-2.7233,-2.7197,-2.7209,-2.7172,-2.7163,-2.7179,-2.7147,-2.7154,-2.7127,-2.7133,-2.7132,-2.709,-2.7086,-2.7048,-2.7036,-2.7016,-2.7041,-2.7024,-2.7048,-2.7042,-2.7074,-2.7072,-2.7187,-2.72,-2.7081,-2.7082,-2.7083,0,-2.7287,-2.73,-2.7265,-2.7264,-2.7251,-2.7251,-2.7246,-2.7202,-2.7199,-2.7175,-2.7185,-2.7178,-2.717,-2.7167,-2.7135,-2.7126,-2.7108,-2.715,-2.7106,-2.7118,-2.7107,-2.7106,-2.7107,-2.7158,-2.716,-2.7161,-2.7162,0,-2.7387,-2.7369,-2.7363,-2.7353,-2.7348,-2.7337,-2.7324,-2.7326,-2.7278,-2.7277,-2.7273,-2.7267,-2.7256,-2.7249,-2.7234,-2.7218,-2.7182,-2.7176,-2.7182,-2.7194,-2.7207,-2.7199,-2.7071,-2.7173,-2.7172,-2.7171,-2.7171,-2.717,-2.7465,-2.7474,-2.745,-2.7446,-2.7432,-2.742,-2.7425,-2.7399,-2.7396,-2.7383,-2.7358,-2.7358,-2.7336,-2.7312,-2.7299,-2.7298,-2.7277,-2.7286,-2.7288,-2.7291,-2.7297,-2.7209,-2.7296,-2.7295,-2.7295,-2.7295,-2.7294,0,-2.7561,-2.7544,-2.7541,-2.7523,-2.752,-2.7488,-2.7471,-2.7471,-2.7472,-2.7454,-2.7448,-2.7444,-2.7437,-2.7406,-2.7396,-2.7402,-2.7385,-2.7401,-2.7399,-2.7396,-2.7317,-2.7312,-2.7414,-2.7414,-2.7414,-2.7414,-2.7414,-2.7414,-2.7611,-2.7624,-2.7603,-2.7609,-2.7591,-2.7591,-2.7585,-2.7574,-2.756,-2.7557,-2.7552,-2.7532,-2.7509,-2.7498,-2.7491,-2.7481,-2.7479,-2.75,-2.7486,-2.7413,-2.7401,-2.739,-2.7385,-2.7501,-2.7501,-2.7564,-2.7564,-2.7565]},{"header":{"parameterUnit":"m.s-1","parameterCategory":1,"la1":30.2991,"la2":30.254,"lo1":-89.0895,"lo2":-89.0444,"dy":0.0017,"dx":0.0017,"nx":28,"ny":28,"refTime":"2024-05-02T03:00:00:Z","depth":0,"parameterNumber":3,"parameterNumberName":"V-component_of_WINDS"},"data":[0,0,0,0,0,0,0,0,0,0,0,0,0,0,0,0,0,0,0,0,0,0,0,0,0,0,0,0,0,0,0,0,0,0,0,0,0,0,0,0,0,0,0,0,0,0,0,0,0,0,0,0,0,0,0,0,0,0,2.6139,2.6139,0,2.616,2.616,2.616,2.6156,2.6156,2.6155,2.6155,2.6174,2.6175,2.6176,0,0,0,0,0,0,0,0,0,0,0,0,0,2.6093,2.6094,2.6139,2.6139,2.6139,2.616,2.616,2.616,2.6156,2.6156,2.6155,2.6155,2.6174,2.6175,2.6176,0,0,0,0,0,0,0,0,0,0,0,0,0,2.6114,2.6095,2.6139,2.614,2.614,2.616,2.616,2.616,2.6156,2.6156,2.6155,2.6154,2.6174,2.6175,2.6176,2.6196,0,0,2.618,2.6181,0,0,0,0,0,0,0,0,2.6112,2.6115,2.6139,2.614,2.614,2.6155,2.6151,2.6172,2.6156,2.615,2.6155,2.6154,2.6168,2.617,2.6175,2.6196,2.6197,2.618,2.6181,2.6182,2.6182,0,0,0,0,0,0,0,2.6111,2.6114,2.6147,2.614,2.614,2.6139,2.6141,2.6155,2.6162,2.615,2.615,2.6153,2.6168,2.6174,2.6175,2.6198,2.618,2.6181,2.6182,2.6183,2.6237,2.6238,0,0,0,0,0,0,2.611,2.6113,2.6146,2.6148,2.6125,2.614,2.6142,2.615,2.6162,2.6163,2.6153,2.6153,2.6172,2.6174,2.6176,2.6201,2.6182,2.6183,2.6184,2.6237,2.6237,2.6238,0,0,0,0,0,0,2.6109,2.6113,2.6145,2.613,2.6134,2.6141,2.615,2.6151,2.6157,2.6164,2.6165,2.6158,2.6171,2.6174,2.6191,2.6201,2.6183,2.6185,2.6236,2.6237,2.6238,2.6249,0,0,0,0,0,0,2.6107,2.6112,2.612,2.6131,2.6135,2.6161,2.6151,2.6152,2.6159,2.6158,2.6168,2.6169,2.6171,2.6189,2.6192,2.6203,2.6186,2.6235,2.6236,2.6237,2.6248,2.625,2.6252,0,0,0,0,0,2.6106,2.6121,2.612,2.6124,2.6145,2.6161,2.6164,2.6166,2.616,2.6168,2.6173,2.6169,2.6199,2.6191,2.6195,2.6205,2.6234,2.6236,2.6237,2.6247,2.625,2.6252,0,0,0,0,0,0,2.6111,2.6123,2.6122,2.6141,2.6151,2.6161,2.617,2.6169,2.6179,2.6178,2.618,2.6182,2.62,2.6204,2.6194,2.6225,2.6216,2.6218,2.6222,2.6225,2.6227,2.6226,2.6187,0,0,0,0,0,2.6114,2.6127,2.6137,2.6153,2.6158,2.6163,2.617,2.6171,2.618,2.6184,2.619,2.6198,2.621,2.6217,2.6228,2.6248,2.6251,2.6257,2.626,2.6261,2.6264,2.6276,2.6279,2.6243,2.6243,2.6243,0,0,2.6122,2.613,2.6137,2.6154,2.6161,2.6175,2.6166,2.618,2.619,2.6186,2.6203,2.6208,2.6217,2.6236,2.6245,2.624,2.6274,2.6263,2.6265,2.6266,2.6278,2.6281,2.6284,2.6244,2.6244,2.6244,0,0,2.6142,2.6149,2.6164,2.6172,2.6183,2.6187,2.619,2.6201,2.6204,2.6221,2.6219,2.623,2.625,2.6257,2.6263,2.6287,2.6285,2.6291,2.6303,2.6315,2.6317,2.632,2.633,2.6333,2.6293,2.6293,2.6293,0,2.6149,2.6169,2.6172,2.6187,2.6194,2.6192,2.6208,2.6215,2.6229,2.6234,2.6229,2.6254,2.626,2.6282,2.6288,2.6292,2.6297,2.629,2.6317,2.632,2.6322,2.6331,2.6335,2.6293,2.6293,2.6293,2.6293,0,2.6179,2.6192,2.6203,2.6218,2.6227,2.6242,2.6247,2.6255,2.6255,2.626,2.6278,2.6285,2.6298,2.6303,2.6303,2.6324,2.6321,2.6317,2.6308,2.6326,2.6335,2.6338,2.6294,2.6294,2.6294,2.6294,0,0,2.6203,2.622,2.6224,2.6231,2.6244,2.6254,2.6269,2.6283,2.6291,2.63,2.6313,2.633,2.6326,2.6333,2.6334,2.6344,2.6364,2.6338,2.6338,2.6343,2.6389,2.6394,2.6398,2.6362,2.6363,2.6363,2.6389,0,2.6225,2.6253,2.6256,2.628,2.6293,2.6292,2.6305,2.6314,2.6318,2.633,2.6334,2.6347,2.634,2.6344,2.6354,2.6359,2.6373,2.6357,2.6374,2.6375,2.6373,2.6402,2.6407,2.6431,2.6392,2.6393,2.6393,0,2.6255,2.6267,2.6293,2.6305,2.6311,2.6323,2.6336,2.6347,2.6357,2.636,2.6368,2.6368,2.6383,2.6373,2.6394,2.6383,2.639,2.6394,2.6395,2.6397,2.6386,2.6407,2.6439,2.6443,2.6398,2.6398,2.6398,0,2.6272,2.6294,2.6313,2.6319,2.6333,2.6342,2.6348,2.6357,2.6366,2.6377,2.6383,2.6395,2.6402,2.6412,2.6415,2.6407,2.6436,2.6426,2.6439,2.6439,2.6446,2.6446,2.6481,2.6449,2.6449,2.6448,2.6448,0,2.6297,2.6313,2.6321,2.6333,2.6351,2.6354,2.6372,2.6377,2.6386,2.6399,2.6398,2.6409,2.6412,2.6424,2.6426,2.6444,2.6447,2.645,2.645,2.6451,2.6451,2.6456,2.6455,2.6449,2.6449,2.6449,2.6449,0,2.6319,2.6325,2.6346,2.6358,2.6361,2.6374,2.6384,2.6396,2.64,2.6416,2.642,2.6426,2.6441,2.6444,2.6461,2.6463,2.6484,2.6483,2.6481,2.6482,2.6495,2.6494,2.6536,2.6542,2.6505,2.6505,2.6505,0,2.6336,2.6349,2.6363,2.6372,2.6378,2.6392,2.6401,2.6405,2.6414,2.6427,2.6437,2.6451,2.6463,2.6486,2.6492,2.6505,2.6505,2.6518,2.6507,2.6507,2.6506,2.6506,2.6508,2.6521,2.6521,2.6522,2.6522,0,2.6365,2.6368,2.6381,2.6396,2.6407,2.6418,2.6429,2.6436,2.6441,2.6452,2.6467,2.6476,2.6494,2.6509,2.6522,2.6528,2.6526,2.6525,2.6529,2.653,2.653,2.6532,2.6489,2.6525,2.6524,2.6524,2.6524,2.6524,2.6386,2.6398,2.641,2.6425,2.6434,2.6445,2.6456,2.6462,2.6476,2.6491,2.6492,2.6509,2.6519,2.6537,2.6544,2.6557,2.6553,2.6558,2.656,2.6561,2.6563,2.6527,2.6559,2.6559,2.6559,2.6559,2.6559,0,2.6416,2.6424,2.6438,2.6455,2.6467,2.6464,2.6476,2.6487,2.6502,2.6512,2.6524,2.6542,2.6556,2.6564,2.6578,2.6587,2.6587,2.6591,2.6591,2.6592,2.6565,2.6561,2.6591,2.6591,2.6591,2.6591,2.6591,2.6591,2.6434,2.6454,2.6458,2.6483,2.6491,2.6508,2.6515,2.6525,2.6533,2.6554,2.6566,2.6571,2.658,2.6595,2.6608,2.661,2.6616,2.6621,2.6622,2.6597,2.6594,2.6591,2.6587,2.6622,2.6622,2.6648,2.6648,2.6649]}]]